星链-32604 (STARLINK-32604)

导读 | 豆包AI

STARLINK-32604是美国SpaceX星链星座的卫星,于2024年11月24日发射入轨。星链项目旨在构建全球卫星互联网星座,为全球提供高速低延迟互联网服务,该卫星是星链组网扩张的组成部分,服务于星座的全球覆盖能力建设,推动全球互联网络覆盖延伸至偏远地区。

基本信息
目录编号:
62070
目录名称:
STARLINK-32604
国际标识:
2024-217P
轨道中心:
EARTH
卫星名称:
星链-32604
卫星全名:
星链-32604 (STARLINK-32604)
卫星状态:
在轨 (已飞行523 天)
发射日期:
2024-11-24 UTC
国别 :
美国 (US)
星等 :
--
轨道信息
数据来源 国际轨道数据
星历时间: 2026-04-30T03:19:33+0800
1天前
查看轨道信息
半长轴: 6853.33km
偏心率: 0.0001007
轨道倾角: 53.161°
近地点辐角 97.220°
升交点赤经 316.734°
平近点角 262.891°
近地点: 474.502km
远地点: 475.884km
周期: 94.105分钟
每日圈数: 15.302075
详细信息
固有亮度:
5
最大亮度:
2.5
卫星平台:
Starlink V1.0
覆盖范围:
全球
运营商:
太空探索技术公司
运营商所在国:
美国
制造商(研发单位):
太空探索技术公司
制造商所在国:
美国
使用方式:
暂无
卫星简介
Starlink 计划是 SpaceX 推出的全球卫星互联网项目,通过发射低轨道卫星,为全球尤其是偏远地区提供高速、低延迟的互联网服务。自 2019 年起,Starlink 已部署数千颗卫星,旨在缩小全球数字鸿沟,推动互联网普及。该项目还为军事、航空等行业提供通信支持,带来广泛经济效益。
2D轨道图
3D轨道图
轨道高度分析图
轨道倾角分析图
轨道综合分析图
查看轨道综合分析图